This is the latest recevied weather packets stored in our database for station/object N3TTT-13. If no packets are shown the sender has not sent any weather packets the latest 10 day(s).
| Time | Temp. | Humidity | Pressure | Rain* | Wind** | Luminosity | Snow |
|---|---|---|---|---|---|---|---|
| 1777633064 | 6.67° C | 89% | 1015.2 hPa | 0 mm | - | 33 W/m² | - |
| 1777632760 | 6.67° C | 91% | 1015.2 hPa | 0 mm | - | 30 W/m² | - |
| 1777632455 | 5.56° C | 91% | 1015.3 hPa | 0 mm | - | 26 W/m² | - |
| 1777632153 | 5.56° C | 92% | 1015.3 hPa | 0 mm | - | 22 W/m² | - |
| 1777631850 | 5° C | 92% | 1015.2 hPa | 0 mm | - | 18 W/m² | - |
| 1777631549 | 5° C | 92% | 1015.3 hPa | 0 mm | - | 15 W/m² | - |
| 1777631245 | 4.44° C | 92% | 1015.1 hPa | 0 mm | - | 12 W/m² | - |
| 1777630943 | 4.44° C | 92% | 1015 hPa | 0 mm | - | 9 W/m² | - |
| 1777630638 | 4.44° C | 92% | 1015.1 hPa | 0 mm | - | 6 W/m² | - |
| 1777630336 | 4.44° C | 92% | 1015 hPa | 0 mm | - | 3 W/m² | - |
| 1777630033 | 4.44° C | 92% | 1014.9 hPa | 0 mm | - | 1 W/m² | - |
| 1777629730 | 3.89° C | 92% | 1014.8 hPa | 0 mm | - | 0 W/m² | - |
| 1777629427 | 3.89° C | 91% | 1014.7 hPa | 0 mm | - | 0 W/m² | - |
| 1777629123 | 4.44° C | 91% | 1014.9 hPa | 0 mm | - | 0 W/m² | - |
| 1777628819 | 4.44° C | 91% | 1014.8 hPa | 0 mm | - | 0 W/m² | - |
| 1777628516 | 4.44° C | 91% | 1015.1 hPa | 0 mm | - | 0 W/m² | - |
| 1777628212 | 4.44° C | 91% | 1014.8 hPa | 0 mm | - | 0 W/m² | - |
| 1777627908 | 4.44° C | 91% | 1014.7 hPa | 0 mm | - | 0 W/m² | - |
| 1777627607 | 4.44° C | 91% | 1014.9 hPa | 0 mm | - | 0 W/m² | - |
| 1777627301 | 4.44° C | 91% | 1014.6 hPa | 0 mm | - | 0 W/m² | - |
| 1777626999 | 5° C | 90% | 1014.5 hPa | 0 mm | - | 0 W/m² | - |
| 1777626695 | 5° C | 90% | 1014.7 hPa | 0 mm | - | 0 W/m² | - |
| 1777626391 | 5° C | 90% | 1014.7 hPa | 0 mm | - | 0 W/m² | - |
| 1777626090 | 5° C | 90% | 1014.5 hPa | 0 mm | - | 0 W/m² | - |
| 1777625785 | 5° C | 90% | 1014.4 hPa | 0 mm | - | 0 W/m² | - |
* Rain latest hour (hover to see other rain measurements)
** Current wind speed in m/s (hover to see current wind gust speed)